STARLINK-4465, 53496

Orbit data source: Space-Track

STARLINK-4465, 53496 is a payload satellite owned by SpaceX/Seattle (US) in SSO that was launched on Fri, 12 Aug 2022 UTC via an FALCON 9 launch vehicle from the Air Force Western Test Range (AFWTR). Payload-class satellites include a variety of spacecraft equipped with specific instruments for various scientific and technological missions. These include communications satellites like Starlink; space stations such as the ISS; scientific satellites like the Hubble; Earth observation satellites from companies like Planet Labs, Umbra, and HawkEye 360; GPS; miniature CubeSats for education and research; and military/defense satellites.

Loading next visibility...
Identifier
53496, 2022-099AH
Orbit
SSO
Country
Flag of USUS
Related business
Manufacturer
SpaceX/Seattle
Mission
Partially operational Commercial Communications
Bus & Motor
STARLINK, Unknown motor
Mass
300 kg wet, ~275 kg dry
Launch date (UTC)
2022-08-12 (3 years ago)
Launch vehicle
FALCON 9
Launch site
Air Force Western Test Range (AFWTR)
Object type
Payload
Rocket body
Debris
Shape & HBR
Box + 1 Pan, 10.1 m
Radar Cross Section
13.562 m², Large (>1 m²)

Expand to show TLE details & history
Last TLE update: 7 hours ago

TLE from 7 hours ago
0 STARLINK-4465
1 53496U 22099AH  25308.44375140  .00003723  00000-0  22584-4 0  9995
2 53496  97.6532  76.6865 0000712  13.1306 346.9978 15.78348984177742
Epoch: 2025-11-04T10:39Z
TLE epoch observation values (Epoch: 2025-11-04T10:39:00.120Z)
Latitude
-0.00008°
Longitude
-126.99468°
Altitude
337.814 km
Speed
7.706 km/s
True Right ascension
05h 06m 44s
True Declination
0° 00' 00"
Sunlit
Object was in full shadow at epoch
Visualization orbit readout
Latitude
Unknown
Longitude
Unknown
Altitude
Unknown
Speed
Unknown
Apparent Right ascension
Unknown
Apparent Declination
Unknown
Sunlit
N/A
Visualization observer readout
Local Sidereal Time
13:55:10
Azimuth
Unknown
Elevation
Unknown
Doppler factor
Unknown
Orbital elements
Apogee altitude
332.495 km
Perigee altitude
331.54 km
Semi-major axis
6,710.155 km
Eccentricity
0.00007
Inclination
97.6532°
RAAN
76.6865°
Arg. of periapsis
13.1306°
True anomaly
346.99596°
Mean anomaly
346.9978°
Eccentric anomaly
346.99688°
Mean motion
3.94861 °/min
Orbital period
91.17 mins
BSTAR
0.000022584
Loading maneuver chart data...
Computing Atmospheric mass density...
Loading historical data...
Loading historical data...
Loading historical data...
Loading historical data...
Loading historical data...
Loading historical data...
Loading historical data...

Documentation

Showing up to 5 results
|